Flag for U.S.A. Weather past 2 weeks in Tuba City, Arizona, U.S.A.

Now
26 °F

Clear.


Feels Like: 26 °F
Forecast: 21 / 52 °F
Wind: No wind

Location: Grand Canyon National Park Airport

Current Time: Dec 19, 2014 at 8:48:44 PM

Latest Report: Dec 19, 2014 at 7:54 PM


Visibility: 10 mi

Pressure: 30.30 "Hg

Humidity: 88%

Dew point: 23 °F

Location of Tuba CityLocation

Historic Weather in Tuba City — Graph

°F

Tuba City temperature yesterday

Maximum temperature yesterday: 38 °F (at 2:54 PM)
Minimum temperature yesterday: 20 °F (at 11:54 PM)
Average temperature yesterday: 30 °F

Past Weeks' High & Low Weather Summary

 TemperatureHumidityPressure
High55 °F (Dec 7, 2:54 PM)100% (Dec 4, 9:54 PM)30.43 "Hg (Dec 4, 9:54 PM)
Low15 °F (Dec 19, 7:54 AM)29% (Dec 15, 11:54 AM)29.88 "Hg (Dec 12, 9:54 PM)
Average36 °F79%30.13 "Hg
* Reported Dec 4 6:54 PM — Dec 19 6:54 PM, Tuba City, Weather by CustomWeather, © 2014

Note: Actual official high and low records may vary slightly from our data, if they occured in-between our weather recording intervals... More about our weather records

Advertising

Tuba City weather history for previous 24 hours

 ConditionsComfort  
Time TempWeatherWind HumidityBarometerVisibility
6:54 PM
Dec 19
27 °FClear.5 mph89%30.30 "Hg10 mi
5:54 PM28 °FClear.No wind85%30.29 "Hg10 mi
4:54 PM39 °FSunny.3 mph62%30.22 "Hg10 mi
3:54 PM42 °FSunny.3 mph57%30.19 "Hg10 mi
2:54 PM41 °FSunny.3 mph62%30.20 "Hg10 mi
1:54 PM41 °FSunny.6 mph60%30.20 "Hg10 mi
12:54 PM43 °FSunny.5 mph43%30.20 "Hg10 mi
11:54 AM40 °FSunny.3 mph49%30.24 "Hg10 mi
10:54 AM38 °FSunny.No wind58%30.27 "Hg10 mi
9:54 AM32 °FSunny.No wind88%30.29 "Hg10 mi
8:54 AM22 °FSunny.No wind92%30.32 "Hg10 mi
7:54 AM15 °FSunny.3 mph91%30.34 "Hg10 mi
6:54 AM16 °FClear.3 mph87%30.33 "Hg10 mi
5:54 AM16 °FClear.3 mph92%30.30 "Hg10 mi
4:54 AM17 °FClear.No wind88%30.26 "Hg10 mi
4:01 AM19 °FIce fog.No wind88%30.21 "Hg3 mi
3:54 AM19 °FIce fog.No wind96%30.24 "Hg0 mi
2:54 AM18 °FPassing clouds.No wind88%30.24 "Hg10 mi
1:54 AM18 °FClear.No wind92%30.24 "Hg10 mi
12:54 AM19 °FClear.No wind88%30.25 "Hg10 mi
11:54 PM
Dec 18
20 °FClear.No wind92%30.26 "Hg10 mi
10:54 PM22 °FClear.No wind89%30.25 "Hg10 mi
9:54 PM23 °FClear.No wind92%30.24 "Hg10 mi
8:54 PM25 °FClear.No wind92%30.23 "Hg10 mi
Weather by CustomWeather, © 2014

See weather overviewHow to use our weather pages